TimeCDT,TemperatureF,Dew PointF,Humidity,Sea Level PressureIn,VisibilityMPH,Wind Direction,Wind SpeedMPH,Gust SpeedMPH,PrecipitationIn,Events,Conditions,WindDirDegrees,DateUTC
12:56 AM,30.9,23.0,72,30.22,10.0,NNE,12.7,-,N/A,,Overcast,30,2013-04-05 05:56:00
1:56 AM,30.0,19.0,64,30.22,10.0,NE,10.4,-,N/A,,Mostly Cloudy,40,2013-04-05 06:56:00
2:56 AM,30.0,19.0,64,30.21,10.0,NE,15.0,-,N/A,,Overcast,50,2013-04-05 07:56:00
3:56 AM,28.9,19.9,69,30.19,10.0,ENE,11.5,-,N/A,,Mostly Cloudy,60,2013-04-05 08:56:00
4:56 AM,30.0,19.9,66,30.19,10.0,East,8.1,-,N/A,,Overcast,80,2013-04-05 09:56:00
5:56 AM,28.9,21.0,72,30.20,10.0,East,8.1,-,N/A,,Mostly Cloudy,100,2013-04-05 10:56:00
6:56 AM,28.9,21.0,72,30.19,10.0,East,8.1,-,N/A,,Mostly Cloudy,100,2013-04-05 11:56:00
7:56 AM,30.0,21.9,72,30.20,10.0,ESE,10.4,-,N/A,,Partly Cloudy,110,2013-04-05 12:56:00
8:56 AM,33.1,21.9,64,30.18,10.0,SE,11.5,-,N/A,,Mostly Cloudy,130,2013-04-05 13:56:00
9:56 AM,35.1,23.0,61,30.14,10.0,SE,16.1,23.0,N/A,,Overcast,140,2013-04-05 14:56:00
10:56 AM,37.9,23.0,55,30.09,10.0,SE,24.2,29.9,N/A,,Mostly Cloudy,130,2013-04-05 15:56:00
11:56 AM,39.9,24.1,53,30.09,10.0,SE,18.4,24.2,N/A,,Overcast,130,2013-04-05 16:56:00
12:56 PM,43.0,23.0,45,30.04,10.0,SE,20.7,27.6,N/A,,Mostly Cloudy,130,2013-04-05 17:56:00
1:56 PM,45.0,23.0,42,29.95,10.0,SE,25.3,33.4,N/A,,Overcast,130,2013-04-05 18:56:00
2:56 PM,48.0,26.1,42,29.91,10.0,SE,27.6,35.7,N/A,,Mostly Cloudy,130,2013-04-05 19:56:00
3:56 PM,51.1,27.0,39,29.87,10.0,SE,23.0,33.4,N/A,,Mostly Cloudy,140,2013-04-05 20:56:00
4:56 PM,55.9,30.0,37,29.81,10.0,SE,20.7,27.6,N/A,,Scattered Clouds,140,2013-04-05 21:56:00
5:56 PM,60.1,33.1,36,29.77,10.0,SSE,21.9,31.1,N/A,,Scattered Clouds,150,2013-04-05 22:56:00
6:56 PM,60.1,34.0,38,29.76,10.0,SSE,16.1,24.2,N/A,,Partly Cloudy,150,2013-04-05 23:56:00
7:56 PM,57.9,35.1,42,29.73,10.0,SE,13.8,23.0,N/A,,Partly Cloudy,140,2013-04-06 00:56:00
8:56 PM,52.0,35.1,53,29.72,10.0,ESE,13.8,-,N/A,,Clear,110,2013-04-06 01:56:00
9:56 PM,51.1,36.0,56,29.70,10.0,ESE,11.5,-,N/A,,Clear,120,2013-04-06 02:56:00
10:56 PM,52.0,37.9,59,29.68,10.0,SE,12.7,-,N/A,,Partly Cloudy,140,2013-04-06 03:56:00
11:56 PM,53.1,37.9,57,29.64,10.0,SE,12.7,-,N/A,,Partly Cloudy,140,2013-04-06 04:56:00